Location: Unspecified
(43.3830°N, 0.0000°E)
Time: 20:23:18
(UTC+00:00)

Transit 2A - Pass Details

Date: 21 June 2019
Orbit: 595 x 964 km, 66.7° (Epoch: 22 July)

Event Time Altitude Azimuth Distance (km) Brightness Sun altitude
Exits shadow 02:43:03 - 269° (W) 3,405 9.0 -13.6°
Reaches altitude 10° 02:45:46 10° 284° (WNW) 2,699 8.6 -13.3°
Maximum altitude 02:49:53 18° 325° (NW) 2,174 8.5 -12.8°
Drops below altitude 10° 02:53:56 10° 6° (N) 2,635 9.7 -12.4°
Sets 02:57:21 0° 25° (NNE) 3,526 11.1 -12.0°
